This is the latest recevied weather packets stored in our database for station/object K0CVS. If no packets are shown the sender has not sent any weather packets the latest 1 day(s).
| Time | Temp. | Humidity | Pressure | Rain* | Wind** | Luminosity | Snow |
|---|---|---|---|---|---|---|---|
| 1778059715 | 7.22° C | 88% | 1015.7 hPa | 0 mm | - | 0 W/m² | - |
| 1778059413 | 7.22° C | 88% | 1015.8 hPa | 0 mm | - | 0 W/m² | - |
| 1778058505 | 7.22° C | 89% | 1015.6 hPa | 0 mm | - | 0 W/m² | - |
| 1778058202 | 7.22° C | 89% | 1015.7 hPa | 0 mm | - | 0 W/m² | - |
| 1778057595 | 7.78° C | 89% | 1015.8 hPa | 0 mm | - | 0 W/m² | - |
| 1778056988 | 7.78° C | 88% | 1015.7 hPa | 0 mm | - | 0 W/m² | - |
| 1778056685 | 7.78° C | 88% | 1015.5 hPa | 0 mm | - | 0 W/m² | - |
| 1778056080 | 7.78° C | 88% | 1015.9 hPa | 0 mm | - | 0 W/m² | - |
| 1778055473 | 7.78° C | 88% | 1015.8 hPa | 0 mm | - | 0 W/m² | - |
| 1778055170 | 7.78° C | 88% | 1015.4 hPa | 0 mm | - | 0 W/m² | - |
| 1778052445 | 7.78° C | 83% | 1014.7 hPa | 0 mm | - | 0 W/m² | - |
| 1778052143 | 7.78° C | 83% | 1014.4 hPa | 0 mm | - | 0 W/m² | - |
| 1778051840 | 7.78° C | 82% | 1014.5 hPa | 0 mm | - | 0 W/m² | - |
| 1778051538 | 7.78° C | 82% | 1014.7 hPa | 0 mm | - | 0 W/m² | - |
| 1778051235 | 7.78° C | 82% | 1014.9 hPa | 0 mm | - | 0 W/m² | - |
| 1778050630 | 7.78° C | 82% | 1015 hPa | 0 mm | - | 0 W/m² | - |
| 1778050023 | 7.78° C | 81% | 1015.4 hPa | 0 mm | - | 0 W/m² | - |
| 1778049719 | 7.78° C | 83% | 1015.7 hPa | 0 mm | - | 0 W/m² | - |
| 1778049417 | 7.78° C | 82% | 1015.7 hPa | 0 mm | - | 0 W/m² | - |
| 1778049114 | 7.78° C | 82% | 1015.6 hPa | 0 mm | - | 0 W/m² | - |
| 1778048812 | 7.78° C | 82% | 1015.8 hPa | 0 mm | - | 0 W/m² | - |
| 1778048204 | 7.78° C | 81% | 1015.8 hPa | 0 mm | - | 0 W/m² | - |
| 1778047601 | 7.78° C | 79% | 1015.9 hPa | 0 mm | - | 0 W/m² | - |
| 1778045178 | 8.33° C | 78% | 1015.8 hPa | 0 mm | - | 0 W/m² | - |
| 1778044876 | 8.33° C | 78% | 1015.8 hPa | 0 mm | - | 0 W/m² | - |
* Rain latest hour (hover to see other rain measurements)
** Current wind speed in m/s (hover to see current wind gust speed)